Location: Ernsee
(50.8780°N, 12.0389°E)
Time: 18:32:38
(UTC+00:00)

Cosmos 1821 Rocket - Pass Details

Date: 20 January 2020
Orbit: 944 x 1005 km, 82.9° (Epoch: 24 February)

Event Time Altitude Azimuth Distance (km) Brightness Sun altitude
Rises 06:05:47 0° 349° (N) 3,688 6.7 -9.1°
Reaches altitude 10° 06:08:19 10° 349° (N) 2,727 6.0 -8.7°
Maximum altitude 06:14:34 85° 262° (W) 971 4.0 -7.8°
Drops below altitude 10° 06:20:41 10° 175° (S) 2,671 6.7 -6.9°
Sets 06:23:08 0° 175° (S) 3,607 7.4 -6.5°
